Location: Burera
(21.3780°N, 81.9534°E)
Time: 11:55:11
(UTC+00:00)

GPS 2-17 Rocket1 - Pass Details

Date: 13 August 2020
Orbit: 571 x 659 km, 20.3° (Epoch: 21 September)

Event Time Altitude Azimuth Distance (km) Brightness Sun altitude
Rises 14:48:06 0° 270° (W) 2,853 7.5 -23.4°
Reaches altitude 10° 14:50:36 10° 262° (W) 1,933 6.3 -24.0°
Enters shadow 14:54:06 34° 215° (SW) 972 4.0 -24.7°
